N2744X EGPC-EDLN

Flight info

Callsign N2744X
Flight time 2h 43m
Altitude 19000
Route LESNI DCT DOKEN DCT BEDUM/N0214F180 DCT NOLRU DCT VEBAK VEBAK2J
Aircraft C414/L-SBDFGRY/S

Departure

Time 2026-04-28 11:02
Airport Wick John O'Groats Airport (EGPC)

Arrival

Time 2026-04-28 13:46
Airport Mönchengladbach Airport (EDLN)
Time Latitude Longitude Altitude Speed Heading
2026-04-28 10:47 58.45371 -3.08879 121 ft 0 kts 284°
2026-04-28 10:58 58.45395 -3.08841 120 ft 13 kts 75°
2026-04-28 10:58 58.45459 -3.08783 120 ft 15 kts 342°
2026-04-28 10:58 58.45518 -3.08725 119 ft 0 kts 41°
2026-04-28 10:59 58.45531 -3.08703 119 ft 9 kts 47°
2026-04-28 10:59 58.45607 -3.08613 120 ft 19 kts 311°
2026-04-28 10:59 58.45703 -3.08860 121 ft 28 kts 306°
2026-04-28 10:59 58.45844 -3.09215 118 ft 39 kts 306°
2026-04-28 11:00 58.46022 -3.09668 120 ft 46 kts 311°
2026-04-28 11:00 58.46210 -3.10149 119 ft 44 kts 307°
2026-04-28 11:00 58.46370 -3.10492 116 ft 16 kts 339°
2026-04-28 11:00 58.46350 -3.10499 118 ft 6 kts 116°
2026-04-28 11:01 58.46345 -3.10484 115 ft 0 kts 128°
2026-04-28 11:01 58.46318 -3.10415 118 ft 27 kts 125°
2026-04-28 11:01 58.46082 -3.09837 121 ft 81 kts 126°
2026-04-28 11:01 58.45735 -3.08858 367 ft 94 kts 135°
2026-04-28 11:02 58.45235 -3.07953 679 ft 108 kts 135°
2026-04-28 11:02 58.44696 -3.06855 986 ft 117 kts 134°
2026-04-28 11:02 58.44124 -3.05670 1300 ft 126 kts 135°
2026-04-28 11:02 58.43519 -3.04423 1580 ft 130 kts 135°
2026-04-28 11:03 58.42899 -3.03135 1864 ft 134 kts 135°
2026-04-28 11:03 58.42260 -3.01814 2145 ft 138 kts 135°
2026-04-28 11:03 58.41597 -3.00455 2419 ft 142 kts 135°
2026-04-28 11:03 58.40919 -2.99055 2687 ft 145 kts 134°
2026-04-28 11:04 58.40237 -2.97652 2949 ft 148 kts 134°
2026-04-28 11:04 58.39534 -2.96205 3207 ft 150 kts 134°
2026-04-28 11:04 58.38824 -2.94743 3470 ft 151 kts 133°
2026-04-28 11:04 58.38108 -2.93275 3724 ft 152 kts 133°
2026-04-28 11:05 58.37386 -2.91793 3980 ft 153 kts 133°
2026-04-28 11:05 58.36661 -2.90305 4235 ft 154 kts 133°
2026-04-28 11:05 58.35933 -2.88813 4492 ft 154 kts 132°
2026-04-28 11:05 58.35201 -2.87315 4750 ft 155 kts 132°
2026-04-28 11:06 58.34467 -2.85812 5005 ft 155 kts 132°
2026-04-28 11:06 58.33741 -2.84326 5267 ft 156 kts 132°
2026-04-28 11:06 58.33002 -2.82816 5517 ft 156 kts 132°
2026-04-28 11:06 58.32260 -2.81299 5769 ft 157 kts 131°
2026-04-28 11:07 58.31514 -2.79776 6026 ft 158 kts 131°
2026-04-28 11:07 58.30764 -2.78246 6278 ft 158 kts 131°
2026-04-28 11:07 58.30011 -2.76710 6535 ft 159 kts 131°
2026-04-28 11:07 58.29253 -2.75169 6794 ft 160 kts 131°
2026-04-28 11:08 58.28494 -2.73620 7044 ft 160 kts 131°
2026-04-28 11:08 58.27742 -2.72089 7284 ft 161 kts 130°
2026-04-28 11:08 58.26977 -2.70534 7528 ft 161 kts 130°
2026-04-28 11:08 58.26210 -2.68977 7775 ft 162 kts 130°
2026-04-28 11:09 58.25442 -2.67416 8021 ft 162 kts 130°
2026-04-28 11:09 58.24667 -2.65845 8271 ft 163 kts 130°
2026-04-28 11:09 58.23893 -2.64274 8530 ft 163 kts 130°
2026-04-28 11:09 58.23115 -2.62697 8776 ft 164 kts 129°
2026-04-28 11:10 58.22334 -2.61117 9030 ft 164 kts 129°
2026-04-28 11:10 58.21553 -2.59534 9291 ft 165 kts 129°
2026-04-28 11:10 58.20767 -2.57945 9554 ft 165 kts 129°
2026-04-28 11:10 58.19990 -2.56375 9807 ft 166 kts 128°
2026-04-28 11:11 58.19200 -2.54778 10070 ft 167 kts 128°
2026-04-28 11:11 58.18386 -2.53134 10209 ft 175 kts 128°
2026-04-28 11:11 58.17539 -2.51429 10351 ft 180 kts 128°
2026-04-28 11:11 58.16670 -2.49677 10483 ft 184 kts 128°
2026-04-28 11:12 58.15783 -2.47893 10617 ft 188 kts 128°
2026-04-28 11:12 58.14883 -2.46084 10742 ft 190 kts 128°
2026-04-28 11:12 58.13973 -2.44253 10867 ft 192 kts 128°
2026-04-28 11:12 58.13055 -2.42412 10993 ft 193 kts 128°
2026-04-28 11:13 58.12143 -2.40582 11117 ft 194 kts 128°
2026-04-28 11:13 58.11215 -2.38719 11236 ft 195 kts 128°
2026-04-28 11:13 58.10284 -2.36854 11374 ft 196 kts 128°
2026-04-28 11:13 58.09346 -2.34977 11489 ft 196 kts 128°
2026-04-28 11:14 58.08408 -2.33100 11611 ft 197 kts 128°
2026-04-28 11:14 58.07468 -2.31221 11737 ft 197 kts 128°
2026-04-28 11:14 58.06524 -2.29336 11861 ft 197 kts 128°
2026-04-28 11:14 58.05579 -2.27450 11988 ft 198 kts 128°
2026-04-28 11:15 58.04646 -2.25589 12109 ft 198 kts 128°
2026-04-28 11:15 58.03699 -2.23702 12238 ft 198 kts 128°
2026-04-28 11:15 58.02750 -2.21814 12364 ft 198 kts 128°
2026-04-28 11:15 58.01800 -2.19923 12491 ft 199 kts 128°
2026-04-28 11:16 58.00848 -2.18032 12617 ft 199 kts 128°
2026-04-28 11:16 57.99895 -2.16138 12745 ft 199 kts 128°
2026-04-28 11:16 57.98939 -2.14241 12873 ft 200 kts 128°
2026-04-28 11:16 57.97983 -2.12346 13003 ft 200 kts 128°
2026-04-28 11:17 57.97024 -2.10447 13134 ft 200 kts 128°
2026-04-28 11:17 57.96065 -2.08548 13264 ft 200 kts 128°
2026-04-28 11:17 57.95117 -2.06675 13395 ft 200 kts 128°
2026-04-28 11:17 57.94155 -2.04772 13523 ft 201 kts 128°
2026-04-28 11:18 57.93192 -2.02872 13656 ft 201 kts 127°
2026-04-28 11:18 57.92228 -2.00970 13786 ft 201 kts 127°
2026-04-28 11:18 57.91262 -1.99065 13925 ft 201 kts 127°
2026-04-28 11:18 57.90295 -1.97163 14054 ft 201 kts 127°
2026-04-28 11:19 57.89328 -1.95257 14189 ft 202 kts 127°
2026-04-28 11:19 57.88358 -1.93352 14320 ft 202 kts 127°
2026-04-28 11:19 57.87386 -1.91441 14445 ft 202 kts 127°
2026-04-28 11:19 57.86428 -1.89560 14559 ft 202 kts 127°
2026-04-28 11:20 57.85454 -1.87652 14681 ft 203 kts 127°
2026-04-28 11:20 57.84479 -1.85740 14801 ft 203 kts 127°
2026-04-28 11:20 57.83503 -1.83828 14918 ft 203 kts 127°
2026-04-28 11:20 57.82525 -1.81917 15041 ft 203 kts 127°
2026-04-28 11:21 57.81546 -1.80003 15159 ft 203 kts 127°
2026-04-28 11:21 57.80566 -1.78089 15285 ft 204 kts 127°
2026-04-28 11:21 57.79598 -1.76198 15402 ft 204 kts 127°
2026-04-28 11:21 57.78615 -1.74282 15523 ft 204 kts 126°
2026-04-28 11:22 57.77630 -1.72364 15644 ft 204 kts 126°
2026-04-28 11:22 57.76644 -1.70444 15766 ft 205 kts 126°
2026-04-28 11:22 57.75656 -1.68523 15892 ft 205 kts 126°
2026-04-28 11:22 57.74668 -1.66602 16017 ft 205 kts 126°
2026-04-28 11:23 57.73679 -1.64683 16143 ft 205 kts 126°
2026-04-28 11:23 57.72686 -1.62757 16269 ft 205 kts 126°
2026-04-28 11:23 57.71694 -1.60833 16396 ft 206 kts 126°
2026-04-28 11:23 57.70715 -1.58937 16519 ft 206 kts 126°
2026-04-28 11:24 57.69720 -1.57011 16646 ft 206 kts 126°
2026-04-28 11:24 57.68724 -1.55085 16773 ft 206 kts 126°
2026-04-28 11:24 57.67726 -1.53159 16901 ft 206 kts 125°
2026-04-28 11:24 57.66729 -1.51232 17030 ft 206 kts 125°
2026-04-28 11:25 57.65729 -1.49305 17161 ft 207 kts 125°
2026-04-28 11:25 57.64728 -1.47376 17290 ft 207 kts 125°
2026-04-28 11:25 57.63726 -1.45446 17419 ft 207 kts 125°
2026-04-28 11:25 57.62723 -1.43517 17550 ft 207 kts 125°
2026-04-28 11:26 57.61733 -1.41614 17682 ft 207 kts 125°
2026-04-28 11:26 57.60727 -1.39682 17812 ft 208 kts 124°
2026-04-28 11:26 57.59721 -1.37751 17947 ft 208 kts 124°
2026-04-28 11:26 57.58712 -1.35817 18082 ft 208 kts 124°
2026-04-28 11:27 57.57704 -1.33885 18213 ft 208 kts 124°
2026-04-28 11:27 57.56694 -1.31953 18353 ft 208 kts 124°
2026-04-28 11:27 57.55682 -1.30018 18487 ft 208 kts 124°
2026-04-28 11:27 57.54671 -1.28085 18623 ft 209 kts 124°
2026-04-28 11:28 57.53660 -1.26146 18756 ft 208 kts 123°
2026-04-28 11:28 57.52666 -1.24186 18884 ft 208 kts 123°
2026-04-28 11:28 57.51686 -1.22254 19001 ft 208 kts 123°
2026-04-28 11:28 57.50687 -1.20296 19118 ft 209 kts 123°
2026-04-28 11:29 57.49686 -1.18341 19237 ft 209 kts 123°
2026-04-28 11:29 57.48685 -1.16386 19353 ft 209 kts 123°
2026-04-28 11:29 57.47683 -1.14429 19473 ft 209 kts 123°
2026-04-28 11:29 57.46677 -1.12464 19537 ft 212 kts 123°
2026-04-28 11:30 57.45652 -1.10464 19545 ft 216 kts 123°
2026-04-28 11:30 57.43569 -1.06412 19552 ft 220 kts 124°
2026-04-28 11:30 57.42507 -1.04348 19553 ft 222 kts 124°
2026-04-28 11:31 57.41439 -1.02275 19554 ft 223 kts 124°
2026-04-28 11:31 57.40363 -1.00189 19554 ft 224 kts 124°
2026-04-28 11:31 57.39286 -0.98102 19555 ft 224 kts 124°
2026-04-28 11:31 57.38208 -0.96012 19556 ft 225 kts 124°
2026-04-28 11:32 57.37127 -0.93921 19559 ft 225 kts 124°
2026-04-28 11:32 57.36043 -0.91826 19561 ft 225 kts 124°
2026-04-28 11:32 57.34975 -0.89762 19557 ft 225 kts 124°
2026-04-28 11:32 57.33891 -0.87670 19560 ft 225 kts 124°
2026-04-28 11:33 57.32806 -0.85578 19554 ft 225 kts 124°
2026-04-28 11:33 57.31720 -0.83487 19552 ft 225 kts 124°
2026-04-28 11:33 57.30635 -0.81398 19552 ft 225 kts 124°
2026-04-28 11:33 57.29548 -0.79308 19554 ft 225 kts 124°
2026-04-28 11:34 57.28462 -0.77222 19554 ft 225 kts 124°
2026-04-28 11:34 57.27375 -0.75137 19556 ft 225 kts 124°
2026-04-28 11:34 57.26289 -0.73053 19555 ft 225 kts 124°
2026-04-28 11:34 57.25216 -0.70998 19557 ft 225 kts 124°
2026-04-28 11:35 57.24130 -0.68918 19554 ft 225 kts 124°
2026-04-28 11:35 57.23041 -0.66835 19555 ft 225 kts 124°
2026-04-28 11:35 57.21953 -0.64758 19555 ft 225 kts 124°
2026-04-28 11:35 57.20866 -0.62681 19552 ft 225 kts 124°
2026-04-28 11:36 57.19776 -0.60604 19560 ft 225 kts 124°
2026-04-28 11:36 57.18690 -0.58532 19558 ft 225 kts 124°
2026-04-28 11:36 57.17615 -0.56487 19556 ft 225 kts 124°
2026-04-28 11:36 57.16526 -0.54415 19556 ft 225 kts 124°
2026-04-28 11:37 57.15437 -0.52346 19554 ft 225 kts 124°
2026-04-28 11:37 57.14346 -0.50275 19555 ft 225 kts 124°
2026-04-28 11:37 57.13256 -0.48207 19557 ft 225 kts 124°
2026-04-28 11:37 57.12165 -0.46139 19553 ft 225 kts 124°
2026-04-28 11:38 57.11074 -0.44072 19555 ft 225 kts 124°
2026-04-28 11:38 57.09982 -0.42007 19554 ft 225 kts 125°
2026-04-28 11:38 57.08890 -0.39943 19556 ft 225 kts 125°
2026-04-28 11:38 57.07797 -0.37878 19555 ft 225 kts 125°
2026-04-28 11:39 57.06704 -0.35816 19556 ft 225 kts 125°
2026-04-28 11:39 57.05626 -0.33784 19556 ft 225 kts 125°
2026-04-28 11:39 57.04532 -0.31724 19554 ft 225 kts 125°
2026-04-28 11:39 57.03438 -0.29666 19554 ft 225 kts 125°
2026-04-28 11:40 57.02345 -0.27611 19558 ft 225 kts 125°
2026-04-28 11:40 57.01250 -0.25554 19557 ft 225 kts 125°
2026-04-28 11:40 57.00156 -0.23500 19559 ft 225 kts 125°
2026-04-28 11:40 56.99061 -0.21447 19557 ft 225 kts 125°
2026-04-28 11:41 56.97980 -0.19422 19555 ft 225 kts 125°
2026-04-28 11:41 56.96884 -0.17371 19554 ft 225 kts 125°
2026-04-28 11:41 56.95789 -0.15323 19555 ft 225 kts 126°
2026-04-28 11:41 56.94692 -0.13273 19556 ft 225 kts 126°
2026-04-28 11:42 56.93595 -0.11227 19553 ft 225 kts 126°
2026-04-28 11:42 56.92498 -0.09180 19556 ft 225 kts 126°
2026-04-28 11:42 56.91401 -0.07137 19555 ft 225 kts 126°
2026-04-28 11:42 56.90304 -0.05093 19554 ft 225 kts 126°
2026-04-28 11:43 56.89205 -0.03051 19559 ft 225 kts 126°
2026-04-28 11:43 56.88121 -0.01036 19556 ft 225 kts 126°
2026-04-28 11:43 56.87023 0.01004 19555 ft 225 kts 126°
2026-04-28 11:43 56.85925 0.03040 19556 ft 225 kts 126°
2026-04-28 11:44 56.84826 0.05078 19557 ft 225 kts 126°
2026-04-28 11:44 56.83727 0.07112 19554 ft 225 kts 126°
2026-04-28 11:44 56.82628 0.09146 19553 ft 225 kts 126°
2026-04-28 11:44 56.81526 0.11181 19548 ft 225 kts 126°
2026-04-28 11:45 56.80426 0.13215 19557 ft 225 kts 126°
2026-04-28 11:45 56.79325 0.15245 19550 ft 225 kts 126°
2026-04-28 11:45 56.78239 0.17247 19552 ft 225 kts 126°
2026-04-28 11:45 56.77137 0.19279 19553 ft 225 kts 126°
2026-04-28 11:46 56.76033 0.21309 19555 ft 225 kts 126°
2026-04-28 11:46 56.74930 0.23338 19555 ft 225 kts 126°
2026-04-28 11:46 56.73827 0.25363 19554 ft 225 kts 126°
2026-04-28 11:46 56.72723 0.27391 19553 ft 225 kts 126°
2026-04-28 11:47 56.71618 0.29417 19552 ft 225 kts 126°
2026-04-28 11:47 56.70513 0.31440 19553 ft 225 kts 126°
2026-04-28 11:47 56.69408 0.33464 19551 ft 225 kts 126°
2026-04-28 11:47 56.68302 0.35486 19553 ft 225 kts 126°
2026-04-28 11:48 56.67211 0.37480 19552 ft 225 kts 126°
2026-04-28 11:48 56.66105 0.39500 19552 ft 225 kts 126°
2026-04-28 11:48 56.64998 0.41519 19549 ft 226 kts 126°
2026-04-28 11:48 56.63890 0.43538 19551 ft 225 kts 126°
2026-04-28 11:49 56.62782 0.45555 19549 ft 226 kts 126°
2026-04-28 11:49 56.61675 0.47570 19553 ft 225 kts 126°
2026-04-28 11:49 56.60566 0.49586 19546 ft 226 kts 126°
2026-04-28 11:49 56.59456 0.51601 19546 ft 226 kts 126°
2026-04-28 11:50 56.58363 0.53585 19549 ft 226 kts 126°
2026-04-28 11:50 56.57253 0.55597 19550 ft 226 kts 126°
2026-04-28 11:50 56.56143 0.57609 19549 ft 226 kts 126°
2026-04-28 11:50 56.55032 0.59617 19549 ft 226 kts 126°
2026-04-28 11:51 56.53923 0.61625 19545 ft 226 kts 126°
2026-04-28 11:51 56.52811 0.63632 19545 ft 226 kts 126°
2026-04-28 11:51 56.51700 0.65638 19547 ft 226 kts 127°
2026-04-28 11:51 56.50588 0.67643 19544 ft 226 kts 127°
2026-04-28 11:52 56.49476 0.69647 19544 ft 226 kts 127°
2026-04-28 11:52 56.48379 0.71623 19544 ft 226 kts 127°
2026-04-28 11:52 56.47266 0.73624 19543 ft 226 kts 127°
2026-04-28 11:52 56.46152 0.75627 19543 ft 226 kts 127°
2026-04-28 11:53 56.45039 0.77623 19544 ft 226 kts 127°
2026-04-28 11:53 56.43926 0.79621 19543 ft 226 kts 127°
2026-04-28 11:53 56.42812 0.81619 19542 ft 226 kts 127°
2026-04-28 11:53 56.41698 0.83612 19544 ft 226 kts 127°
2026-04-28 11:54 56.40584 0.85608 19543 ft 226 kts 127°
2026-04-28 11:54 56.39469 0.87599 19540 ft 226 kts 127°
2026-04-28 11:54 56.38369 0.89564 19543 ft 225 kts 127°
2026-04-28 11:54 56.37255 0.91553 19540 ft 225 kts 127°
2026-04-28 11:55 56.36139 0.93542 19543 ft 225 kts 127°
2026-04-28 11:55 56.35024 0.95529 19542 ft 225 kts 127°
2026-04-28 11:55 56.33908 0.97515 19543 ft 225 kts 127°
2026-04-28 11:55 56.32792 0.99501 19540 ft 225 kts 127°
2026-04-28 11:56 56.31674 1.01486 19541 ft 225 kts 127°
2026-04-28 11:56 56.30557 1.03469 19539 ft 226 kts 127°
2026-04-28 11:56 56.29455 1.05424 19541 ft 225 kts 127°
2026-04-28 11:56 56.28337 1.07405 19540 ft 225 kts 127°
2026-04-28 11:57 56.27220 1.09384 19539 ft 225 kts 127°
2026-04-28 11:57 56.26101 1.11362 19536 ft 226 kts 127°
2026-04-28 11:57 56.24982 1.13342 19538 ft 226 kts 127°
2026-04-28 11:57 56.23863 1.15318 19538 ft 225 kts 127°
2026-04-28 11:58 56.22745 1.17292 19542 ft 226 kts 127°
2026-04-28 11:58 56.21623 1.19269 19533 ft 226 kts 127°
2026-04-28 11:58 56.20519 1.21214 19534 ft 226 kts 127°
2026-04-28 11:58 56.19399 1.23186 19536 ft 226 kts 127°
2026-04-28 11:59 56.18278 1.25157 19534 ft 226 kts 127°
2026-04-28 11:59 56.17157 1.27127 19533 ft 226 kts 127°
2026-04-28 11:59 56.16036 1.29094 19536 ft 225 kts 127°
2026-04-28 11:59 56.14914 1.31062 19532 ft 226 kts 127°
2026-04-28 12:00 56.13791 1.33030 19532 ft 226 kts 127°
2026-04-28 12:00 56.12669 1.34994 19530 ft 226 kts 127°
2026-04-28 12:00 56.11562 1.36933 19532 ft 226 kts 127°
2026-04-28 12:00 56.10437 1.38897 19534 ft 226 kts 127°
2026-04-28 12:01 56.09314 1.40860 19533 ft 226 kts 127°
2026-04-28 12:01 56.08190 1.42821 19528 ft 226 kts 127°
2026-04-28 12:01 56.07065 1.44781 19517 ft 226 kts 128°
2026-04-28 12:01 56.05941 1.46741 19529 ft 226 kts 128°
2026-04-28 12:02 56.04815 1.48699 19524 ft 226 kts 128°
2026-04-28 12:02 56.03691 1.50655 19524 ft 226 kts 128°
2026-04-28 12:02 56.02581 1.52582 19525 ft 225 kts 128°
2026-04-28 12:02 56.01457 1.54535 19527 ft 225 kts 128°
2026-04-28 12:03 56.00331 1.56488 19532 ft 226 kts 128°
2026-04-28 12:03 55.99205 1.58439 19530 ft 226 kts 128°
2026-04-28 12:03 55.98079 1.60390 19520 ft 226 kts 128°
2026-04-28 12:03 55.96952 1.62338 19531 ft 225 kts 128°
2026-04-28 12:04 55.95826 1.64286 19524 ft 225 kts 128°
2026-04-28 12:04 55.94700 1.66229 19528 ft 225 kts 128°
2026-04-28 12:04 55.93590 1.68145 19521 ft 225 kts 128°
2026-04-28 12:04 55.92463 1.70088 19525 ft 225 kts 128°
2026-04-28 12:05 55.91339 1.72025 19522 ft 225 kts 128°
2026-04-28 12:05 55.90213 1.73964 19524 ft 225 kts 128°
2026-04-28 12:05 55.89089 1.75896 19525 ft 225 kts 128°
2026-04-28 12:05 55.87966 1.77827 19527 ft 224 kts 128°
2026-04-28 12:06 55.86841 1.79757 19524 ft 224 kts 128°
2026-04-28 12:06 55.85719 1.81683 19523 ft 224 kts 128°
2026-04-28 12:06 55.84611 1.83582 19519 ft 224 kts 128°
2026-04-28 12:06 55.83488 1.85505 19520 ft 224 kts 128°
2026-04-28 12:07 55.82366 1.87425 19521 ft 224 kts 128°
2026-04-28 12:07 55.81244 1.89342 19523 ft 224 kts 128°
2026-04-28 12:07 55.80123 1.91258 19521 ft 224 kts 128°
2026-04-28 12:07 55.79002 1.93171 19514 ft 223 kts 128°
2026-04-28 12:08 55.77881 1.95083 19517 ft 223 kts 128°
2026-04-28 12:08 55.76761 1.96992 19519 ft 223 kts 128°
2026-04-28 12:08 55.75641 1.98899 19519 ft 223 kts 128°
2026-04-28 12:08 55.74536 2.00778 19511 ft 223 kts 128°
2026-04-28 12:09 55.73415 2.02683 19514 ft 223 kts 128°
2026-04-28 12:09 55.72296 2.04584 19517 ft 223 kts 128°
2026-04-28 12:09 55.71176 2.06483 19516 ft 223 kts 128°
2026-04-28 12:09 55.70058 2.08379 19515 ft 222 kts 128°
2026-04-28 12:10 55.68939 2.10275 19514 ft 222 kts 128°
2026-04-28 12:10 55.67856 2.12215 19510 ft 219 kts 122°
2026-04-28 12:10 55.66885 2.14285 19512 ft 219 kts 122°
2026-04-28 12:10 55.65908 2.16348 19513 ft 219 kts 122°
2026-04-28 12:11 55.64939 2.18380 19510 ft 219 kts 122°
2026-04-28 12:11 55.63957 2.20438 19511 ft 219 kts 122°
2026-04-28 12:11 55.62975 2.22497 19511 ft 219 kts 122°
2026-04-28 12:11 55.61992 2.24555 19514 ft 219 kts 122°
2026-04-28 12:12 55.61010 2.26613 19511 ft 219 kts 122°
2026-04-28 12:12 55.60026 2.28672 19509 ft 219 kts 122°
2026-04-28 12:12 55.59041 2.30730 19514 ft 219 kts 122°
2026-04-28 12:12 55.58056 2.32786 19507 ft 219 kts 122°
2026-04-28 12:13 55.57083 2.34814 19511 ft 219 kts 122°
2026-04-28 12:13 55.56098 2.36871 19509 ft 219 kts 123°
2026-04-28 12:13 55.55112 2.38923 19507 ft 219 kts 123°
2026-04-28 12:13 55.54126 2.40975 19506 ft 219 kts 123°
2026-04-28 12:14 55.53140 2.43026 19505 ft 219 kts 123°
2026-04-28 12:14 55.52153 2.45075 19506 ft 219 kts 123°
2026-04-28 12:14 55.51166 2.47125 19505 ft 219 kts 123°
2026-04-28 12:14 55.50178 2.49173 19506 ft 219 kts 123°
2026-04-28 12:15 55.49191 2.51219 19506 ft 219 kts 123°
2026-04-28 12:15 55.48217 2.53237 19506 ft 219 kts 123°
2026-04-28 12:15 55.47228 2.55282 19505 ft 219 kts 123°
2026-04-28 12:15 55.46239 2.57326 19506 ft 219 kts 123°
2026-04-28 12:16 55.45250 2.59369 19505 ft 219 kts 123°
2026-04-28 12:16 55.44260 2.61411 19503 ft 219 kts 123°
2026-04-28 12:16 55.43270 2.63454 19503 ft 219 kts 123°
2026-04-28 12:16 55.42279 2.65494 19505 ft 219 kts 123°
2026-04-28 12:17 55.41288 2.67534 19503 ft 219 kts 123°
2026-04-28 12:17 55.40632 2.68883 19503 ft 219 kts 123°
2026-04-28 12:17 55.39319 2.71582 19502 ft 219 kts 123°
2026-04-28 12:17 55.38328 2.73618 19500 ft 219 kts 123°
2026-04-28 12:18 55.37335 2.75653 19500 ft 219 kts 123°
2026-04-28 12:18 55.36342 2.77690 19502 ft 219 kts 123°
2026-04-28 12:18 55.35349 2.79723 19500 ft 219 kts 123°
2026-04-28 12:18 55.34355 2.81756 19501 ft 219 kts 124°
2026-04-28 12:19 55.33697 2.83102 19497 ft 219 kts 124°
2026-04-28 12:19 55.32367 2.85819 19499 ft 219 kts 124°
2026-04-28 12:19 55.31386 2.87823 19500 ft 219 kts 124°
2026-04-28 12:19 55.30391 2.89851 19499 ft 219 kts 124°
2026-04-28 12:20 55.29395 2.91880 19497 ft 219 kts 124°
2026-04-28 12:20 55.28400 2.93906 19495 ft 219 kts 124°
2026-04-28 12:20 55.27404 2.95933 19496 ft 219 kts 124°
2026-04-28 12:20 55.26408 2.97958 19495 ft 219 kts 124°
2026-04-28 12:21 55.25747 2.99298 19496 ft 219 kts 124°
2026-04-28 12:21 55.24750 3.01324 19494 ft 219 kts 124°
2026-04-28 12:21 55.23753 3.03346 19495 ft 219 kts 124°
2026-04-28 12:21 55.22430 3.06025 19496 ft 219 kts 124°
2026-04-28 12:22 55.21432 3.08046 19498 ft 219 kts 124°
2026-04-28 12:22 55.20757 3.09410 19492 ft 219 kts 124°
2026-04-28 12:22 55.19772 3.11402 19489 ft 219 kts 124°
2026-04-28 12:22 55.18773 3.13419 19491 ft 219 kts 124°
2026-04-28 12:23 55.17773 3.15437 19491 ft 219 kts 124°
2026-04-28 12:23 55.16773 3.17454 19492 ft 220 kts 124°
2026-04-28 12:23 55.15771 3.19471 19491 ft 219 kts 124°
2026-04-28 12:23 55.14771 3.21485 19489 ft 219 kts 125°
2026-04-28 12:24 55.13446 3.24150 19490 ft 219 kts 125°
2026-04-28 12:24 55.12769 3.25510 19490 ft 219 kts 125°
2026-04-28 12:24 55.11780 3.27496 19492 ft 219 kts 125°
2026-04-28 12:24 55.10778 3.29506 19491 ft 219 kts 125°
2026-04-28 12:25 55.09775 3.31517 19487 ft 220 kts 125°
2026-04-28 12:25 55.08772 3.33525 19488 ft 219 kts 125°
2026-04-28 12:25 55.07768 3.35535 19484 ft 219 kts 125°
2026-04-28 12:25 55.06766 3.37539 19484 ft 219 kts 125°
2026-04-28 12:26 55.05762 3.39544 19487 ft 219 kts 125°
2026-04-28 12:26 55.04756 3.41552 19486 ft 220 kts 125°
2026-04-28 12:26 55.03752 3.43554 19485 ft 220 kts 125°
2026-04-28 12:26 55.02760 3.45532 19482 ft 220 kts 125°
2026-04-28 12:27 55.01753 3.47536 19485 ft 220 kts 125°
2026-04-28 12:27 55.00746 3.49539 19485 ft 220 kts 125°
2026-04-28 12:27 54.99739 3.51542 19484 ft 220 kts 125°
2026-04-28 12:27 54.98731 3.53543 19485 ft 220 kts 125°
2026-04-28 12:28 54.97724 3.55544 19483 ft 220 kts 125°
2026-04-28 12:28 54.96715 3.57543 19481 ft 220 kts 126°
2026-04-28 12:28 54.95707 3.59542 19481 ft 220 kts 126°
2026-04-28 12:28 54.94697 3.61540 19480 ft 220 kts 126°
2026-04-28 12:29 54.92691 3.65507 19483 ft 220 kts 126°
2026-04-28 12:29 54.91680 3.67503 19481 ft 220 kts 126°
2026-04-28 12:29 54.90670 3.69498 19478 ft 220 kts 126°
2026-04-28 12:30 54.89658 3.71492 19479 ft 220 kts 126°
2026-04-28 12:30 54.88646 3.73485 19478 ft 220 kts 126°
2026-04-28 12:30 54.87635 3.75477 19476 ft 220 kts 126°
2026-04-28 12:30 54.86622 3.77468 19475 ft 220 kts 126°
2026-04-28 12:31 54.85608 3.79460 19474 ft 220 kts 126°
2026-04-28 12:31 54.84608 3.81424 19476 ft 220 kts 126°
2026-04-28 12:31 54.83594 3.83414 19476 ft 220 kts 126°
2026-04-28 12:31 54.82580 3.85403 19474 ft 220 kts 126°
2026-04-28 12:32 54.81564 3.87392 19476 ft 220 kts 126°
2026-04-28 12:32 54.80548 3.89380 19474 ft 220 kts 126°
2026-04-28 12:32 54.79532 3.91366 19473 ft 220 kts 126°
2026-04-28 12:32 54.78515 3.93353 19476 ft 220 kts 126°
2026-04-28 12:33 54.77512 3.95313 19471 ft 220 kts 126°
2026-04-28 12:33 54.76494 3.97298 19469 ft 220 kts 126°
2026-04-28 12:33 54.75475 3.99283 19471 ft 220 kts 126°
2026-04-28 12:33 54.74457 4.01265 19470 ft 220 kts 126°
2026-04-28 12:34 54.73438 4.03250 19468 ft 221 kts 126°
2026-04-28 12:34 54.72418 4.05232 19467 ft 221 kts 126°
2026-04-28 12:34 54.71399 4.07213 19468 ft 221 kts 126°
2026-04-28 12:34 54.70378 4.09194 19467 ft 220 kts 126°
2026-04-28 12:35 54.69372 4.11144 19464 ft 220 kts 126°
2026-04-28 12:35 54.68352 4.13123 19466 ft 220 kts 126°
2026-04-28 12:35 54.67331 4.15099 19463 ft 220 kts 126°
2026-04-28 12:35 54.66310 4.17075 19466 ft 220 kts 127°
2026-04-28 12:36 54.65287 4.19051 19460 ft 221 kts 126°
2026-04-28 12:36 54.64265 4.21026 19461 ft 221 kts 127°
2026-04-28 12:36 54.63242 4.23000 19455 ft 221 kts 127°
2026-04-28 12:36 54.62219 4.24973 19462 ft 221 kts 127°
2026-04-28 12:37 54.61210 4.26918 19458 ft 221 kts 127°
2026-04-28 12:37 54.60186 4.28888 19455 ft 221 kts 127°
2026-04-28 12:37 54.59162 4.30859 19454 ft 221 kts 127°
2026-04-28 12:37 54.58138 4.32828 19455 ft 221 kts 127°
2026-04-28 12:38 54.57112 4.34797 19459 ft 221 kts 127°
2026-04-28 12:38 54.56087 4.36766 19449 ft 221 kts 127°
2026-04-28 12:38 54.55061 4.38732 19450 ft 221 kts 127°
2026-04-28 12:38 54.54035 4.40699 19458 ft 221 kts 127°
2026-04-28 12:39 54.53007 4.42666 19451 ft 221 kts 127°
2026-04-28 12:39 54.51995 4.44603 19448 ft 221 kts 127°
2026-04-28 12:39 54.50967 4.46568 19452 ft 221 kts 127°
2026-04-28 12:39 54.49938 4.48531 19451 ft 221 kts 127°
2026-04-28 12:40 54.48909 4.50495 19451 ft 221 kts 127°
2026-04-28 12:40 54.47880 4.52458 19447 ft 221 kts 127°
2026-04-28 12:40 54.46849 4.54421 19446 ft 221 kts 127°
2026-04-28 12:40 54.45819 4.56382 19448 ft 221 kts 127°
2026-04-28 12:41 54.44788 4.58343 19444 ft 221 kts 127°
2026-04-28 12:41 54.43758 4.60302 19446 ft 221 kts 127°
2026-04-28 12:41 54.42739 4.62235 19442 ft 221 kts 127°
2026-04-28 12:41 54.41709 4.64191 19445 ft 221 kts 127°
2026-04-28 12:42 54.40676 4.66149 19447 ft 221 kts 127°
2026-04-28 12:42 54.39643 4.68106 19450 ft 221 kts 127°
2026-04-28 12:42 54.38611 4.70059 19443 ft 221 kts 127°
2026-04-28 12:42 54.37578 4.72011 19445 ft 221 kts 127°
2026-04-28 12:43 54.36544 4.73967 19445 ft 221 kts 127°
2026-04-28 12:43 54.35511 4.75916 19446 ft 221 kts 127°
2026-04-28 12:43 54.34490 4.77844 19444 ft 221 kts 127°
2026-04-28 12:43 54.33455 4.79793 19440 ft 221 kts 127°
2026-04-28 12:44 54.32420 4.81743 19442 ft 221 kts 127°
2026-04-28 12:44 54.31385 4.83692 19442 ft 221 kts 127°
2026-04-28 12:44 54.30351 4.85637 19441 ft 221 kts 127°
2026-04-28 12:44 54.29315 4.87584 19439 ft 221 kts 127°
2026-04-28 12:45 54.28279 4.89528 19441 ft 221 kts 127°
2026-04-28 12:45 54.27243 4.91472 19442 ft 221 kts 127°
2026-04-28 12:45 54.26220 4.93390 19435 ft 221 kts 127°
2026-04-28 12:45 54.25183 4.95332 19441 ft 221 kts 127°
2026-04-28 12:46 54.24146 4.97273 19443 ft 221 kts 127°
2026-04-28 12:46 54.23108 4.99215 19439 ft 221 kts 127°
2026-04-28 12:46 54.22070 5.01154 19444 ft 221 kts 127°
2026-04-28 12:46 54.21032 5.03093 19440 ft 221 kts 127°
2026-04-28 12:47 54.19993 5.05030 19441 ft 221 kts 127°
2026-04-28 12:47 54.18954 5.06968 19441 ft 221 kts 127°
2026-04-28 12:47 54.17928 5.08878 19439 ft 221 kts 127°
2026-04-28 12:47 54.16889 5.10813 19440 ft 221 kts 127°
2026-04-28 12:48 54.15848 5.12749 19436 ft 221 kts 127°
2026-04-28 12:48 54.14807 5.14683 19436 ft 221 kts 127°
2026-04-28 12:48 54.13765 5.16616 19435 ft 221 kts 127°
2026-04-28 12:48 54.12724 5.18549 19434 ft 221 kts 127°
2026-04-28 12:49 54.11682 5.20480 19437 ft 221 kts 127°
2026-04-28 12:49 54.10640 5.22411 19434 ft 221 kts 127°
2026-04-28 12:49 54.09611 5.24314 19437 ft 221 kts 127°
2026-04-28 12:49 54.08569 5.26242 19434 ft 221 kts 127°
2026-04-28 12:50 54.07525 5.28170 19435 ft 221 kts 127°
2026-04-28 12:50 54.06481 5.30099 19431 ft 221 kts 127°
2026-04-28 12:50 54.05437 5.32025 19429 ft 221 kts 128°
2026-04-28 12:50 54.04392 5.33952 19427 ft 221 kts 128°
2026-04-28 12:51 54.03346 5.35877 19427 ft 221 kts 128°
2026-04-28 12:51 54.02302 5.37798 19427 ft 221 kts 128°
2026-04-28 12:51 54.01257 5.39721 19430 ft 221 kts 128°
2026-04-28 12:51 54.00211 5.41643 19425 ft 221 kts 128°
2026-04-28 12:52 53.99179 5.43537 19422 ft 221 kts 128°
2026-04-28 12:52 53.98132 5.45458 19421 ft 221 kts 127°
2026-04-28 12:52 53.97086 5.47376 19423 ft 221 kts 128°
2026-04-28 12:52 53.96038 5.49295 19420 ft 221 kts 128°
2026-04-28 12:53 53.94991 5.51212 19422 ft 221 kts 128°
2026-04-28 12:53 53.93943 5.53128 19421 ft 221 kts 128°
2026-04-28 12:53 53.92896 5.55041 19421 ft 221 kts 128°
2026-04-28 12:53 53.91849 5.56953 19418 ft 221 kts 128°
2026-04-28 12:54 53.90816 5.58838 19418 ft 221 kts 128°
2026-04-28 12:54 53.89769 5.60747 19415 ft 221 kts 128°
2026-04-28 12:54 53.88722 5.62654 19414 ft 221 kts 128°
2026-04-28 12:54 53.87675 5.64560 19414 ft 221 kts 127°
2026-04-28 12:55 53.86628 5.66463 19412 ft 221 kts 128°
2026-04-28 12:55 53.85580 5.68369 19408 ft 221 kts 128°
2026-04-28 12:55 53.84532 5.70272 19408 ft 221 kts 128°
2026-04-28 12:55 53.83482 5.72177 19410 ft 221 kts 128°
2026-04-28 12:56 53.82448 5.74052 19411 ft 221 kts 128°
2026-04-28 12:56 53.81399 5.75951 19407 ft 221 kts 128°
2026-04-28 12:56 53.80351 5.77849 19407 ft 221 kts 128°
2026-04-28 12:56 53.79301 5.79749 19409 ft 221 kts 128°
2026-04-28 12:57 53.78251 5.81646 19406 ft 221 kts 128°
2026-04-28 12:57 53.77200 5.83544 19401 ft 221 kts 128°
2026-04-28 12:57 53.76149 5.85440 19399 ft 221 kts 128°
2026-04-28 12:57 53.75099 5.87334 19400 ft 221 kts 128°
2026-04-28 12:58 53.74062 5.89203 19398 ft 221 kts 128°
2026-04-28 12:58 53.73009 5.91098 19399 ft 221 kts 128°
2026-04-28 12:58 53.71958 5.92989 19396 ft 221 kts 128°
2026-04-28 12:58 53.70904 5.94882 19397 ft 221 kts 128°
2026-04-28 12:59 53.69852 5.96772 19397 ft 221 kts 128°
2026-04-28 12:59 53.68798 5.98663 19396 ft 221 kts 128°
2026-04-28 12:59 53.67745 6.00552 19396 ft 221 kts 128°
2026-04-28 12:59 53.66691 6.02441 19392 ft 221 kts 128°
2026-04-28 13:00 53.65637 6.04327 19392 ft 221 kts 128°
2026-04-28 13:00 53.64598 6.06186 19392 ft 221 kts 128°
2026-04-28 13:00 53.63543 6.08073 19392 ft 221 kts 128°
2026-04-28 13:00 53.62489 6.09956 19395 ft 221 kts 128°
2026-04-28 13:01 53.61435 6.11837 19390 ft 221 kts 128°
2026-04-28 13:01 53.60378 6.13721 19392 ft 221 kts 128°
2026-04-28 13:01 53.59323 6.15602 19386 ft 221 kts 128°
2026-04-28 13:01 53.58267 6.17483 19386 ft 221 kts 128°
2026-04-28 13:02 53.57211 6.19362 19381 ft 221 kts 128°
2026-04-28 13:02 53.56169 6.21214 19380 ft 221 kts 128°
2026-04-28 13:02 53.55113 6.23089 19380 ft 221 kts 128°
2026-04-28 13:02 53.54058 6.24964 19379 ft 221 kts 128°
2026-04-28 13:03 53.53002 6.26836 19385 ft 221 kts 128°
2026-04-28 13:03 53.51942 6.28715 19384 ft 222 kts 128°
2026-04-28 13:03 53.50879 6.30597 19379 ft 222 kts 128°
2026-04-28 13:03 53.49813 6.32484 19381 ft 223 kts 128°
2026-04-28 13:04 53.48748 6.34366 19382 ft 222 kts 128°
2026-04-28 13:04 53.47685 6.36245 19378 ft 222 kts 128°
2026-04-28 13:04 53.46637 6.38096 19380 ft 222 kts 128°
2026-04-28 13:04 53.45576 6.39968 19378 ft 221 kts 128°
2026-04-28 13:05 53.44514 6.41840 19373 ft 221 kts 128°
2026-04-28 13:05 53.43453 6.43708 19371 ft 221 kts 129°
2026-04-28 13:05 53.42392 6.45576 19367 ft 221 kts 128°
2026-04-28 13:05 53.41329 6.47446 19360 ft 222 kts 129°
2026-04-28 13:06 53.40263 6.49321 19360 ft 222 kts 129°
2026-04-28 13:06 53.39196 6.51192 19358 ft 222 kts 129°
2026-04-28 13:06 53.38144 6.53038 19355 ft 222 kts 129°
2026-04-28 13:06 53.37074 6.54913 19351 ft 223 kts 129°
2026-04-28 13:07 53.35988 6.56759 19344 ft 223 kts 134°
2026-04-28 13:07 53.34626 6.58053 19344 ft 230 kts 156°
2026-04-28 13:07 53.33035 6.58481 19344 ft 235 kts 178°
2026-04-28 13:07 53.31399 6.58175 19340 ft 237 kts 185°
2026-04-28 13:08 53.29766 6.57823 19342 ft 237 kts 184°
2026-04-28 13:08 53.28129 6.57478 19335 ft 237 kts 184°
2026-04-28 13:08 53.26515 6.57137 19336 ft 237 kts 184°
2026-04-28 13:08 53.24881 6.56791 19330 ft 237 kts 184°
2026-04-28 13:09 53.23248 6.56448 19330 ft 237 kts 184°
2026-04-28 13:09 53.21616 6.56104 19326 ft 236 kts 184°
2026-04-28 13:09 53.19984 6.55759 19326 ft 237 kts 184°
2026-04-28 13:09 53.18352 6.55419 19329 ft 237 kts 184°
2026-04-28 13:10 53.16718 6.55074 19326 ft 236 kts 184°
2026-04-28 13:10 53.15087 6.54729 19329 ft 236 kts 184°
2026-04-28 13:10 53.13481 6.54394 19326 ft 236 kts 184°
2026-04-28 13:10 53.11854 6.54054 19328 ft 235 kts 184°
2026-04-28 13:11 53.10230 6.53714 19330 ft 235 kts 184°
2026-04-28 13:11 53.08606 6.53373 19330 ft 235 kts 184°
2026-04-28 13:11 53.06980 6.53032 19328 ft 235 kts 184°
2026-04-28 13:11 53.05357 6.52694 19331 ft 235 kts 184°
2026-04-28 13:12 53.03730 6.52355 19326 ft 235 kts 184°
2026-04-28 13:12 53.02106 6.52014 19328 ft 235 kts 184°
2026-04-28 13:12 53.00481 6.51676 19324 ft 235 kts 184°
2026-04-28 13:12 52.98881 6.51344 19325 ft 235 kts 184°
2026-04-28 13:13 52.97263 6.51005 19326 ft 235 kts 184°
2026-04-28 13:13 52.95643 6.50670 19325 ft 234 kts 185°
2026-04-28 13:13 52.94027 6.50333 19325 ft 234 kts 184°
2026-04-28 13:13 52.92412 6.49997 19325 ft 234 kts 185°
2026-04-28 13:14 52.90796 6.49662 19327 ft 234 kts 184°
2026-04-28 13:14 52.89179 6.49326 19324 ft 234 kts 184°
2026-04-28 13:14 52.87587 6.48997 19322 ft 234 kts 184°
2026-04-28 13:14 52.85973 6.48663 19323 ft 234 kts 185°
2026-04-28 13:15 52.84361 6.48327 19320 ft 233 kts 184°
2026-04-28 13:15 52.82752 6.47996 19321 ft 233 kts 184°
2026-04-28 13:15 52.81141 6.47664 19316 ft 233 kts 184°
2026-04-28 13:15 52.79534 6.47332 19318 ft 233 kts 184°
2026-04-28 13:16 52.77927 6.47000 19316 ft 233 kts 184°
2026-04-28 13:16 52.76314 6.46668 19313 ft 234 kts 184°
2026-04-28 13:16 52.74701 6.46334 19307 ft 234 kts 184°
2026-04-28 13:16 52.73088 6.46002 19310 ft 234 kts 184°
2026-04-28 13:17 52.71475 6.45671 19310 ft 233 kts 184°
2026-04-28 13:17 52.69864 6.45340 19309 ft 233 kts 184°
2026-04-28 13:17 52.68276 6.45014 19308 ft 233 kts 185°
2026-04-28 13:17 52.66665 6.44683 19304 ft 233 kts 184°
2026-04-28 13:18 52.65058 6.44352 19303 ft 233 kts 184°
2026-04-28 13:18 52.63451 6.44024 19304 ft 233 kts 184°
2026-04-28 13:18 52.61846 6.43694 19305 ft 233 kts 185°
2026-04-28 13:18 52.60240 6.43366 19300 ft 232 kts 184°
2026-04-28 13:19 52.58638 6.43038 19302 ft 232 kts 184°
2026-04-28 13:19 52.57037 6.42712 19303 ft 232 kts 185°
2026-04-28 13:19 52.55459 6.42387 19301 ft 232 kts 185°
2026-04-28 13:19 52.53859 6.42064 19297 ft 232 kts 184°
2026-04-28 13:20 52.52263 6.41738 19302 ft 231 kts 185°
2026-04-28 13:20 52.50665 6.41411 19295 ft 231 kts 184°
2026-04-28 13:20 52.49069 6.41087 19295 ft 231 kts 184°
2026-04-28 13:20 52.47471 6.40762 19292 ft 231 kts 184°
2026-04-28 13:21 52.45876 6.40438 19292 ft 231 kts 185°
2026-04-28 13:21 52.44283 6.40114 19288 ft 231 kts 185°
2026-04-28 13:21 52.42711 6.39795 19291 ft 231 kts 185°
2026-04-28 13:21 52.41118 6.39470 19290 ft 231 kts 185°
2026-04-28 13:22 52.39528 6.39148 19288 ft 230 kts 185°
2026-04-28 13:22 52.37938 6.38827 19288 ft 230 kts 185°
2026-04-28 13:22 52.36352 6.38506 19286 ft 229 kts 185°
2026-04-28 13:22 52.34739 6.38181 19073 ft 238 kts 185°
2026-04-28 13:23 52.33071 6.37843 18845 ft 244 kts 185°
2026-04-28 13:23 52.31376 6.37499 18613 ft 247 kts 185°
2026-04-28 13:23 52.29688 6.37157 18359 ft 248 kts 185°
2026-04-28 13:23 52.27970 6.36811 18093 ft 249 kts 185°
2026-04-28 13:24 52.26250 6.36466 17827 ft 249 kts 185°
2026-04-28 13:24 52.24527 6.36118 17561 ft 249 kts 185°
2026-04-28 13:24 52.22809 6.35772 17291 ft 249 kts 185°
2026-04-28 13:24 52.21089 6.35427 17031 ft 249 kts 184°
2026-04-28 13:25 52.19372 6.35082 16769 ft 248 kts 185°
2026-04-28 13:25 52.17660 6.34738 16512 ft 248 kts 185°
2026-04-28 13:25 52.15974 6.34399 16258 ft 247 kts 185°
2026-04-28 13:25 52.14271 6.34059 16001 ft 246 kts 185°
2026-04-28 13:26 52.12577 6.33719 15746 ft 245 kts 185°
2026-04-28 13:26 52.10890 6.33379 15498 ft 244 kts 185°
2026-04-28 13:26 52.09209 6.33045 15249 ft 243 kts 185°
2026-04-28 13:26 52.07536 6.32711 15001 ft 242 kts 185°
2026-04-28 13:27 52.05867 6.32378 14760 ft 241 kts 185°
2026-04-28 13:27 52.04202 6.32046 14515 ft 241 kts 185°
2026-04-28 13:27 52.02563 6.31719 14281 ft 240 kts 185°
2026-04-28 13:27 52.00911 6.31390 14037 ft 239 kts 185°
2026-04-28 13:28 51.99261 6.31061 13769 ft 239 kts 185°
2026-04-28 13:28 51.97614 6.30732 13501 ft 238 kts 185°
2026-04-28 13:28 51.95972 6.30407 13235 ft 237 kts 185°
2026-04-28 13:28 51.94336 6.30082 12971 ft 237 kts 184°
2026-04-28 13:29 51.92699 6.29758 12712 ft 236 kts 185°
2026-04-28 13:29 51.91070 6.29434 12449 ft 236 kts 184°
2026-04-28 13:29 51.89461 6.29117 12194 ft 235 kts 184°
2026-04-28 13:29 51.87843 6.28790 11931 ft 235 kts 184°
2026-04-28 13:30 51.86220 6.28472 11677 ft 234 kts 184°
2026-04-28 13:30 51.84604 6.28155 11429 ft 234 kts 183°
2026-04-28 13:30 51.82988 6.27837 11174 ft 234 kts 183°
2026-04-28 13:30 51.81378 6.27516 10925 ft 232 kts 183°
2026-04-28 13:31 51.78177 6.26885 10433 ft 231 kts 182°
2026-04-28 13:31 51.76583 6.26571 10194 ft 231 kts 182°
2026-04-28 13:31 51.74993 6.26259 9934 ft 230 kts 182°
2026-04-28 13:32 51.73427 6.25950 9670 ft 229 kts 182°
2026-04-28 13:32 51.71843 6.25636 9404 ft 229 kts 182°
2026-04-28 13:32 51.70265 6.25328 9139 ft 228 kts 182°
2026-04-28 13:32 51.68688 6.25020 8876 ft 228 kts 182°
2026-04-28 13:33 51.67113 6.24709 8616 ft 227 kts 182°
2026-04-28 13:33 51.65557 6.24402 8361 ft 224 kts 182°
2026-04-28 13:33 51.64017 6.24101 8106 ft 222 kts 182°
2026-04-28 13:33 51.62488 6.23802 7853 ft 221 kts 182°
2026-04-28 13:34 51.60963 6.23504 7603 ft 221 kts 182°
2026-04-28 13:34 51.59461 6.23218 7358 ft 220 kts 182°
2026-04-28 13:34 51.58951 6.23119 7272 ft 219 kts 182°
2026-04-28 13:34 51.57728 6.22873 7075 ft 218 kts 182°
2026-04-28 13:35 51.56226 6.22574 6834 ft 218 kts 181°
2026-04-28 13:35 51.54723 6.22279 6594 ft 218 kts 182°
2026-04-28 13:35 51.53217 6.21992 6328 ft 217 kts 181°
2026-04-28 13:35 51.51743 6.22016 6062 ft 208 kts 164°
2026-04-28 13:36 51.50409 6.22819 5806 ft 203 kts 146°
2026-04-28 13:36 51.49336 6.24230 5547 ft 198 kts 128°
2026-04-28 13:36 51.48605 6.26072 5301 ft 196 kts 115°
2026-04-28 13:36 51.47983 6.28019 5043 ft 195 kts 116°
2026-04-28 13:37 51.47368 6.29926 4797 ft 196 kts 116°
2026-04-28 13:37 51.46746 6.31861 4536 ft 194 kts 115°
2026-04-28 13:37 51.46073 6.33741 4283 ft 196 kts 124°
2026-04-28 13:37 51.45011 6.35165 4006 ft 205 kts 147°
2026-04-28 13:38 51.43658 6.35972 3702 ft 208 kts 157°
2026-04-28 13:38 51.42285 6.36693 3400 ft 208 kts 156°
2026-04-28 13:38 51.40896 6.37440 3085 ft 212 kts 156°
2026-04-28 13:38 51.39494 6.38201 2782 ft 213 kts 155°
2026-04-28 13:39 51.38103 6.38950 2484 ft 215 kts 155°
2026-04-28 13:39 51.36704 6.39753 2191 ft 212 kts 150°
2026-04-28 13:39 51.35357 6.40727 1995 ft 209 kts 149°
2026-04-28 13:39 51.34078 6.41646 1990 ft 196 kts 150°
2026-04-28 13:40 51.32843 6.42533 1982 ft 194 kts 150°
2026-04-28 13:40 51.31625 6.43392 1985 ft 191 kts 150°
2026-04-28 13:40 51.30414 6.44230 1992 ft 190 kts 151°
2026-04-28 13:40 51.29204 6.45121 1984 ft 192 kts 149°
2026-04-28 13:41 51.27983 6.46009 1978 ft 193 kts 150°
2026-04-28 13:41 51.26774 6.46863 1990 ft 189 kts 149°
2026-04-28 13:41 51.25583 6.47706 1993 ft 187 kts 150°
2026-04-28 13:41 51.24415 6.48541 1983 ft 186 kts 150°
2026-04-28 13:42 51.23199 6.49258 1982 ft 191 kts 166°
2026-04-28 13:42 51.21885 6.48867 1981 ft 200 kts 207°
2026-04-28 13:42 51.20979 6.47197 1985 ft 204 kts 248°
2026-04-28 13:42 51.20888 6.44996 1990 ft 200 kts 290°
2026-04-28 13:43 51.21631 6.43245 1976 ft 186 kts 331°
2026-04-28 13:43 51.22795 6.42757 2003 ft 170 kts 13°
2026-04-28 13:43 51.23898 6.43353 1997 ft 166 kts 36°
2026-04-28 13:43 51.24809 6.44326 2050 ft 151 kts 36°
2026-04-28 13:44 51.25636 6.45170 2102 ft 132 kts 41°
2026-04-28 13:44 51.26048 6.46421 1774 ft 138 kts 90°
2026-04-28 13:44 51.25554 6.47704 1570 ft 139 kts 137°
2026-04-28 13:44 51.24658 6.48011 1043 ft 129 kts 173°
2026-04-28 13:45 51.23914 6.48398 454 ft 105 kts 121°
2026-04-28 13:45 51.23557 6.49339 222 ft 96 kts 112°
2026-04-28 13:45 51.23185 6.50136 125 ft 78 kts 118°
2026-04-28 13:45 51.22902 6.50716 126 ft 60 kts 128°
2026-04-28 13:46 51.22695 6.51098 127 ft 16 kts 169°
2026-04-28 13:46 51.22631 6.51019 125 ft 13 kts 276°
2026-04-28 13:46 51.22689 6.50886 128 ft 17 kts 315°
2026-04-28 13:46 51.22771 6.50717 127 ft 21 kts 307°
2026-04-28 13:47 51.22869 6.50520 128 ft 24 kts 310°
2026-04-28 13:47 51.22858 6.50328 128 ft 13 kts 285°
2026-04-28 13:47 51.22895 6.50263 128 ft 0 kts 309°